Redhead, Trinidad And Tobago

4:30 AM AST on February 26, 2017 (GMT -0400)
Scarborough

Weather History for TTCP - October, 2012

Change the Weather History Date:

Wednesday, October 24, 2012

  Actual Average Record
Temperature  
Mean Temperature 83 °F -  
Max Temperature 89 °F 84 °F 89 °F (1997)
Min Temperature 77 °F 75 °F 73 °F (2008)
Cooling Degree Days 18    
Growing Degree Days 33 (Base 50)    
Moisture  
Dew Point 76 °F    
Average Humidity 83    
Maximum Humidity 94    
Minimum Humidity 70    
Precipitation  
Precipitation 0.00 in - - ()
Sea Level Pressure  
Sea Level Pressure 29.83 in    
Wind  
Wind Speed 5 mph ()    
Max Wind Speed 21 mph    
Max Gust Speed -    
Visibility 6.0 miles    
Events Rain    
Averages and records for this station are not official NWS values.
T = Trace of Precipitation, MM = Missing Value Source: Averaged Metar Reports

Daily Weather History Graph

Daily Weather History Graph

Search for Another Location

Airport or City:

Trip Planner

Search our weather history database for the weather conditions in past years. The results will help you decide how hot, cold, wet, or windy it might be!

Date:

Astronomy

Oct. 24, 2012 Rise Set
Actual Time 5:53 AM AST 5:41 PM AST
Civil Twilight 5:32 AM AST 6:02 PM AST
Nautical Twilight 5:07 AM AST 6:27 PM AST
Astronomical Twilight 4:42 AM AST 6:52 PM AST
Moon 2:09 PM AST (10/24) 1:34 AM AST (10/24)
Length of Visible Light 12h 30m
Length of Day
11h 47m
Waxing Gibbous, 76% of the Moon is Illuminated
Oct 24
Waxing Gibbous
Oct 29
Full
Nov 6
Last Quarter
Nov 13
New
Nov 20
First Quarter

Hourly Weather History & Observations

Time (AST) Temp. Heat Index Dew Point Humidity Pressure Visibility Wind Dir Wind Speed Gust Speed Precip Events Conditions
12:00 AM 77.0 °F - 73.4 °F 89% 29.86 in 6.2 mi Calm Calm - N/A   Partly Cloudy
1:00 AM 77.0 °F - 73.4 °F 89% 29.83 in 6.2 mi Calm Calm - N/A   Partly Cloudy
2:00 AM 78.8 °F - 75.2 °F 89% 29.80 in 6.2 mi Calm Calm - N/A   Partly Cloudy
3:00 AM 77.0 °F - 75.2 °F 94% 29.80 in 6.2 mi Calm Calm - N/A   Partly Cloudy
4:00 AM 78.8 °F - 75.2 °F 89% 29.80 in 6.2 mi Calm Calm - N/A   Partly Cloudy
5:00 AM 77.0 °F - 73.4 °F 89% 29.80 in 6.2 mi Calm Calm - N/A   Partly Cloudy
6:00 AM 78.8 °F - 73.4 °F 83% 29.80 in 6.2 mi Calm Calm - N/A   Partly Cloudy
7:00 AM 78.8 °F - 73.4 °F 83% 29.83 in 6.2 mi ENE 3.5 mph - N/A   Partly Cloudy
8:00 AM 84.2 °F 94.1 °F 77.0 °F 79% 29.86 in 6.2 mi East 11.5 mph - N/A   Scattered Clouds
9:00 AM 86.0 °F 96.9 °F 77.0 °F 74% 29.86 in 5.6 mi East 16.1 mph - N/A   Partly Cloudy
10:00 AM 86.0 °F 99.3 °F 78.8 °F 79% 29.86 in 6.2 mi East 18.4 mph - N/A   Scattered Clouds
11:00 AM 87.8 °F 102.5 °F 78.8 °F 75% 29.86 in 6.2 mi East 17.3 mph - N/A   Scattered Clouds
12:00 PM 87.8 °F 99.7 °F 77.0 °F 70% 29.83 in 6.2 mi East 19.6 mph - N/A   Scattered Clouds
1:00 PM 87.8 °F 102.5 °F 78.8 °F 75% 29.80 in 6.2 mi ESE 17.3 mph - N/A   Scattered Clouds
2:00 PM 89.6 °F 104.7 °F 78.8 °F 70% 29.77 in 6.2 mi ESE 17.3 mph - N/A   Partly Cloudy
4:00 PM 86.0 °F 96.9 °F 77.0 °F 74% 29.77 in 6.2 mi ESE 17.3 mph - N/A   Partly Cloudy
5:00 PM 84.2 °F 94.1 °F 77.0 °F 79% 29.80 in 3.7 mi ESE 20.7 mph - N/A Rain Light Rain Showers
6:00 PM 80.6 °F 87.1 °F 77.0 °F 89% 29.83 in 3.7 mi ESE 19.6 mph - N/A Rain Light Rain Showers
7:00 PM 78.8 °F - 75.2 °F 89% 29.83 in 6.2 mi Calm Calm - N/A   Scattered Clouds
8:00 PM 78.8 °F - 75.2 °F 89% 29.86 in 6.2 mi Calm Calm - N/A   Scattered Clouds
9:00 PM 80.6 °F 86.2 °F 75.2 °F 84% 29.86 in 6.2 mi Calm Calm - N/A   Scattered Clouds
10:00 PM 80.6 °F 86.2 °F 75.2 °F 84% 29.86 in 6.2 mi Calm Calm - N/A   Scattered Clouds
11:00 PM 80.6 °F 86.2 °F 75.2 °F 84% 29.86 in 6.2 mi Calm Calm - N/A   Scattered Clouds